Location: Molveno
(46.1500°N, 10.9667°E)
Time: 17:13:48
(UTC+00:00)

USA 267 - Pass Details

Date: 05 July 2020
Orbit: 1102 x 1106 km, 123.0° (Epoch: 09 August)

Event Time Altitude Azimuth Distance (km) Brightness Sun altitude
Exits shadow 21:33:57 19° 121° (ESE) 2,374 4.5 -17.0°
Maximum altitude 21:38:56 83° 35° (NE) 1,114 3.3 -17.4°
Drops below altitude 10° 21:45:30 10° 309° (NW) 2,966 6.5 -17.9°
Sets 21:47:59 0° 308° (NW) 3,926 7.2 -18.0°
